This demonstration page uses our WeatherBlox Daily Observations layout. Learn more.

Hourly Observations for April 25, 2017

Temp ( °F °C ) Dew Point ( °F °C ) Humidity (%) Winds ( mph kmh ) Pressure ( in mb ) Visibility ( mi km ) Precip ( " mm )
12:15 am 00:15 Clear 55 13 40 4.3 56 56 NNE 16 26 29.5 999 10 16.0934 0 0
12:35 am 00:35 Partly Cloudy 55 12.7 40 4.3 57 57 NNE 16 26 29.5 999 10 16.0934 0 0
12:55 am 00:55 Partly Cloudy 55 12.5 40 4.2 57 57 NNE 17 28 29.5 999 10 16.0934 0 0
1:15 am 01:15 Clear 54 12.1 40 4.3 59 59 NE 13 20 29.5 999 10 16.0934 0 0
1:35 am 01:35 Clear 53 11.7 40 4.2 60 60 E 12 19 29.56 1001 10 16.0934 0 0
1:55 am 01:55 Partly Cloudy 52 11.3 39 4.1 62 62 ENE 15 24 29.56 1001 10 16.0934 0 0
2:15 am 02:15 Partly Cloudy 52 11 39 4 62 62 ENE 17 28 29.53 1000 10 16.0934 0 0
2:35 am 02:35 Mostly Cloudy 51 10.8 39 4 63 63 NNE 16 26 29.53 1000 10 16.0934 0 0
2:55 am 02:55 Cloudy 51 10.5 39 4 64 64 NNE 16 26 29.53 1000 10 16.0934 0 0
3:15 am 03:15 Windy with Storms Likely 50 9.8 39 4 67 67 N 23 37 29.53 1000 10 16.0934 0 0
3:35 am 03:35 Cloudy with Light Drizzle 48 8.9 40 4.3 73 73 NNE 22 35 29.5 999 10 16.0934 0 0
3:55 am 03:55 Cloudy 47 8.6 40 4.2 74 74 NNE 24 39 29.47 998 10 16.0934 0 0
4:15 am 04:15 Cloudy 48 8.8 39 4 72 72 NNE 22 35 29.47 998 10 16.0934 0 0
4:35 am 04:35 Cloudy 47 8.6 39 4 73 73 NE 18 30 29.47 998 10 16.0934 0 0
4:55 am 04:55 Cloudy 47 8.5 40 4.5 76 76 ENE 12 19 29.47 998 10 16.0934 0 0
5:15 am 05:15 Cloudy 47 8.6 40 4.5 76 76 NNE 12 19 29.5 999 10 16.0934 0 0
5:35 am 05:35 Cloudy with Rain 47 8.2 42 5.4 83 83 NNW 5 7 29.5 999 10 16.0934 0.02 0.508
5:55 am 05:55 Cloudy 47 8.2 42 5.6 84 84 NE 13 20 29.47 998 10 16.0934 0.03 0.762
6:15 am 06:15 Cloudy 47 8.1 43 6 87 87 ENE 15 24 29.47 998 10 16.0934 0 0
6:35 am 06:35 Cloudy 46 8 43 5.9 87 87 ENE 15 24 29.47 998 10 16.0934 0 0
6:55 am 06:55 Cloudy 46 7.6 43 6 90 90 ENE 15 24 29.47 998 10 16.0934 0 0
7:15 am 07:15 Cloudy 46 7.5 42 5.8 89 89 ENE 14 22 29.47 998 10 16.0934 0 0
7:35 am 07:35 Cloudy 46 7.5 42 5.8 89 89 ENE 14 22 29.47 998 10 16.0934 0 0
7:55 am 07:55 Cloudy 46 7.5 42 5.8 89 89 NW 17 28 29.59 1002 10 16.0934 0 0
8:15 am 08:15 Cloudy with Rain 46 7.6 42 5.8 89 89 N 10 17 29.59 1002 5 8.0467 0.05 1.27
8:35 am 08:35 Cloudy with Light Rain 46 7.5 42 5.8 89 89 N 14 22 29.59 1002 10 16.0934 0.06 1.524
8:55 am 08:55 Cloudy 45 7.2 43 5.9 92 92 N 14 22 29.59 1002 10 16.0934 0.06 1.524
9:15 am 09:15 Cloudy 45 7.4 43 6 91 91 N 13 20 29.59 1002 10 16.0934 0 0
9:35 am 09:35 Cloudy 45 7.3 42 5.8 90 90 N 16 26 29.59 1002 10 16.0934 0 0
9:55 am 09:55 Cloudy 45 7 42 5.5 90 90 NNE 22 35 29.56 1001 10 16.0934 0 0
10:15 am 10:15 Cloudy 44 6.5 40 4.6 88 88 NNE 17 28 29.59 1002 10 16.0934 0 0
10:35 am 10:35 Cloudy 44 6.6 41 4.8 88 88 NNE 21 33 29.59 1002 10 16.0934 0 0
10:55 am 10:55 Cloudy 43 6.2 40 4.5 89 89 N 20 31 29.59 1002 10 16.0934 0 0
11:15 am 11:15 Cloudy 43 6 40 4.2 88 88 NNE 17 28 29.59 1002 10 16.0934 0 0
11:35 am 11:35 Cloudy 42 5.8 39 4.1 89 89 N 16 26 29.59 1002 10 16.0934 0 0
11:55 am 11:55 Cloudy 43 6.1 40 4.3 88 88 NNE 17 28 29.59 1002 10 16.0934 0 0
12:15 pm 12:15 Cloudy 44 6.5 40 4.6 88 88 NNE 17 28 29.59 1002 10 16.0934 0 0
12:35 pm 12:35 Cloudy 45 7 41 4.9 87 87 N 15 24 29.59 1002 10 16.0934 0 0
12:55 pm 12:55 Cloudy 45 7.3 41 5.2 87 87 N 15 24 29.59 1002 10 16.0934 0 0
1:15 pm 13:15 Cloudy 45 7 41 5 87 87 N 16 26 29.59 1002 10 16.0934 0 0
1:35 pm 13:35 Cloudy 44 6.7 40 4.7 87 87 N 16 26 29.59 1002 10 16.0934 0 0
1:55 pm 13:55 Cloudy 44 6.5 40 4.5 87 87 N 14 22 29.59 1002 10 16.0934 0 0
2:15 pm 14:15 Cloudy 44 6.8 41 4.8 87 87 N 16 26 29.59 1002 10 16.0934 0 0
2:35 pm 14:35 Cloudy 45 7 40 4.7 85 85 NNE 13 20 29.59 1002 10 16.0934 0 0
2:55 pm 14:55 Cloudy 44 6.5 40 4.4 87 87 N 13 20 29.62 1003 10 16.0934 0 0
3:15 pm 15:15 Cloudy 44 6.4 40 4.6 88 88 N 16 26 29.62 1003 10 16.0934 0 0
3:35 pm 15:35 Cloudy 44 6.5 40 4.3 86 86 N 14 22 29.62 1003 10 16.0934 0 0
3:55 pm 15:55 Cloudy 44 6.5 40 4.5 87 87 N 16 26 29.62 1003 10 16.0934 0 0
4:15 pm 16:15 Cloudy 44 6.5 40 4.5 87 87 N 13 20 29.62 1003 10 16.0934 0 0
4:35 pm 16:35 Cloudy 43 6.3 40 4.3 87 87 N 18 30 29.65 1004 10 16.0934 0 0
4:55 pm 16:55 Cloudy 43 6.1 39 4.1 87 87 N 17 28 29.62 1003 10 16.0934 0 0
5:15 pm 17:15 Cloudy with Mist and Fog 42 5.7 40 4.3 91 91 N 20 31 29.62 1003 3 4.82802 0 0
5:35 pm 17:35 Cloudy 42 5.5 39 3.9 90 90 N 20 31 29.68 1005 10 16.0934 0 0
5:55 pm 17:55 Cloudy 42 5.5 39 3.7 88 88 N 20 31 29.68 1005 10 16.0934 0 0
6:15 pm 18:15 Cloudy 41 5 38 3.5 90 90 N 23 37 29.68 1005 10 16.0934 0 0
6:35 pm 18:35 Cloudy 41 5 37 3 87 87 N 21 33 29.68 1005 10 16.0934 0 0
6:55 pm 18:55 Cloudy 40 4.7 37 2.8 88 88 N 20 31 29.71 1006 10 16.0934 0 0
7:15 pm 19:15 Cloudy 40 4.5 37 2.5 87 87 N 21 33 29.71 1006 10 16.0934 0 0
7:35 pm 19:35 Cloudy 40 4.2 36 2 86 86 N 21 33 29.71 1006 10 16.0934 0 0
7:55 pm 19:55 Cloudy 39 4 35 1.8 86 86 N 17 28 29.74 1007 10 16.0934 0 0
8:15 pm 20:15 Cloudy 39 3.7 35 1.6 86 86 NNE 18 30 29.74 1007 10 16.0934 0 0
8:35 pm 20:35 Cloudy 38 3.6 35 1.7 88 88 N 15 24 29.74 1007 10 16.0934 0 0
8:55 pm 20:55 Cloudy 38 3.5 35 1.7 88 88 N 16 26 29.74 1007 10 16.0934 0 0
9:15 pm 21:15 Cloudy 38 3.5 35 1.5 87 87 N 16 26 29.77 1008 10 16.0934 0 0
9:35 pm 21:35 Cloudy 38 3.5 35 1.5 87 87 N 14 22 29.77 1008 10 16.0934 0 0
9:55 pm 21:55 Cloudy 38 3.3 34 1 85 85 N 21 33 29.8 1009 10 16.0934 0 0
10:15 pm 22:15 Cloudy 38 3.3 34 1.2 86 86 N 14 22 29.8 1009 10 16.0934 0 0
10:35 pm 22:35 Cloudy 38 3.1 34 1 86 86 N 15 24 29.8 1009 10 16.0934 0 0
10:55 pm 22:55 Cloudy 37 3 33 0.7 85 85 NNW 18 30 29.83 1010 10 16.0934 0 0
11:15 pm 23:15 Cloudy 37 2.8 33 0.6 86 86 N 18 30 29.8 1009 10 16.0934 0 0
11:35 pm 23:35 Cloudy 37 2.6 32 0.2 84 84 N 20 31 29.8 1009 10 16.0934 0 0
11:55 pm 23:55 Cloudy 36 2.4 32 0 84 84 N 18 30 29.8 1009 10 16.0934 0 0

Powered by AerisWeather